Location: Fort Wayne
(41.1310°N, 85.1290°W)
Time: 20:31:29
(UTC-04:00)

Oscar 19 - Visible Passes

Search period start: 24 April 2018 00:00
Search period end: 04 May 2018 00:00
Orbit: 774 x 790 km, 98.6° (Epoch: 24 April)

Date Brightness Start Highest point End Pass type
(mag) Time Alt. Az. Time Alt. Az. Time Alt. Az.
24 Apr 12.9 02:14:04 10° NE 02:16:07 16° ENE 02:16:07 16° ENE visible
24 Apr 11.0 03:52:05 10° N 03:56:40 53° NW 03:56:40 53° NW visible
25 Apr 11.0 03:20:09 10° NNE 03:24:31 61° NE 03:24:31 61° NE visible
25 Apr 12.5 05:01:14 10° NNW 05:04:01 15° WNW 05:05:05 14° WNW visible
26 Apr 12.0 02:48:35 10° NNE 02:52:22 34° ENE 02:52:22 34° ENE visible
26 Apr 11.8 04:28:13 10° N 04:32:33 27° WNW 04:32:55 27° WNW visible
27 Apr 12.8 02:17:39 10° NE 02:20:12 18° ENE 02:20:12 18° ENE visible
27 Apr 11.0 03:55:52 10° N 04:00:46 51° WNW 04:00:46 51° WNW visible
28 Apr 10.8 03:23:54 10° NNE 03:28:36 71° NE 03:28:36 71° NE visible
28 Apr 12.6 05:05:13 10° NNW 05:07:44 14° WNW 05:09:10 12° WNW visible
29 Apr 11.7 02:52:17 10° NNE 02:56:26 38° ENE 02:56:26 38° ENE visible
29 Apr 11.9 04:32:03 10° N 04:36:16 25° WNW 04:37:00 25° WNW visible
30 Apr 12.6 02:21:15 10° NE 02:24:17 20° E 02:24:17 20° E visible
30 Apr 11.0 03:59:40 10° N 04:04:39 48° WNW 04:04:50 47° WNW visible
01 May 10.6 03:27:39 10° NNE 03:32:40 82° NNE 03:32:40 82° NNE visible
01 May 12.7 05:09:15 10° NNW 05:11:26 13° WNW 05:13:14 11° W visible
02 May 11.5 02:56:00 10° NNE 03:00:30 43° E 03:00:30 43° E visible
02 May 12.0 04:35:55 10° NNW 04:39:59 24° WNW 04:41:04 22° W visible
03 May 12.5 02:24:52 10° NE 02:28:20 22° E 02:28:20 22° E visible
03 May 11.1 04:03:28 10° N 04:08:24 44° WNW 04:08:54 43° W visible
